Home > Weather > Cascais > Past weeks

Flag for Portugal Past Weather in Cascais, Portugal — Yesterday and Last 2 Weeks

Now
70 °F

Clear.


Feels Like: 70 °F
Forecast: 65 / 76 °F
Wind: 12 mph from Northwest

Location: Lisbon Portela Airport

Current Time: Jun 27, 2016 at 3:19:34 AM

Latest Report: Jun 27, 2016 at 3:00 AM


Visibility: 10 mi

Pressure: 30.01 "Hg

Humidity: 64%

Dew Point: 57 °F

Location of CascaisLocation

Past Weather in Cascais — Graph

°F

Cascais Temperature Yesterday

Maximum temperature yesterday: 86 °F (at 3:00 PM)
Minimum temperature yesterday: 61 °F (at 2:00 AM)
Average temperature yesterday: 71 °F

High & Low Weather Summary for the Past Weeks

 TemperatureHumidityPressure
High90 °F (Jun 20, 2:00 PM)94% (Jun 13, 12:00 AM)30.30 "Hg (Jun 13, 12:00 AM)
Low55 °F (Jun 17, 4:30 AM)21% (Jun 22, 4:00 PM)29.86 "Hg (Jun 15, 4:30 AM)
Average68 °F69%30.07 "Hg
* Reported Jun 12 2:00 AM — Jun 27 2:00 AM, Cascais, Weather by CustomWeather, © 2016

Note: Actual official high and low records may vary slightly from our data, if they occured in-between our weather recording intervals... More about our weather records

Advertising

Cascais Weather History for the Previous 24 Hours

Scroll right to see more
 ConditionsComfort  
Time TempWeatherWind HumidityBarometerVisibility
2:00 AM
Mon, Jun 27
70 °FClear.12 mph64%30.04 "Hg10 mi
1:30 AM70 °FClear.12 mph64%30.04 "Hg10 mi
1:00 AM70 °FClear.12 mph64%30.04 "Hg10 mi
12:30 AM70 °FClear.10 mph64%30.04 "Hg10 mi
12:00 AM70 °FPassing clouds.8 mph64%30.04 "HgN/A
11:30 PM
Sun, Jun 26
70 °FClear.13 mph60%30.04 "Hg10 mi
11:00 PM70 °FClear.15 mph60%30.04 "Hg10 mi
10:30 PM70 °FPassing clouds.10 mph60%30.04 "HgN/A
10:00 PM70 °FSunny.15 mph60%30.01 "Hg10 mi
9:30 PM72 °FSunny.16 mph57%30.01 "Hg10 mi
9:00 PM73 °FSunny.15 mph53%30.01 "Hg10 mi
8:30 PM73 °FSunny.16 mph53%29.98 "Hg10 mi
8:00 PM75 °FSunny.16 mph50%29.98 "Hg10 mi
7:30 PM77 °FSunny.15 mph47%29.98 "Hg10 mi
7:00 PM79 °FPassing clouds.14 mph48%29.98 "HgN/A
6:30 PM81 °FSunny.13 mph45%29.98 "Hg10 mi
6:00 PM82 °FPassing clouds.12 mph42%29.98 "HgN/A
5:30 PM84 °FPassing clouds.10 mph40%29.98 "HgN/A
5:00 PM84 °FPassing clouds.12 mph40%29.98 "HgN/A
4:30 PM84 °FPassing clouds.10 mph40%29.98 "HgN/A
4:00 PM84 °FPassing clouds.8 mph40%29.98 "HgN/A
3:30 PM84 °FPassing clouds.7 mph40%29.98 "HgN/A
3:00 PM86 °FPassing clouds.9 mph38%29.98 "HgN/A
2:30 PM82 °FPassing clouds.9 mph45%29.98 "HgN/A
2:00 PM81 °FPassing clouds.8 mph48%29.98 "HgN/A
1:30 PM81 °FPassing clouds.7 mph51%29.98 "HgN/A
1:00 PM81 °FPassing clouds.8 mph51%29.98 "HgN/A
12:30 PM79 °FPassing clouds.7 mph54%29.98 "HgN/A
12:00 PM77 °FSunny.6 mph57%29.98 "Hg10 mi
11:30 AM77 °FSunny.7 mph57%29.98 "Hg10 mi
11:00 AM73 °FSunny.6 mph65%29.98 "Hg10 mi
10:30 AM72 °FPassing clouds.7 mph65%29.98 "HgN/A
10:00 AM70 °FPassing clouds.9 mph69%29.98 "HgN/A
9:30 AM68 °FPassing clouds.10 mph73%29.98 "HgN/A
9:00 AM64 °FPassing clouds.13 mph78%29.98 "HgN/A
8:30 AM64 °FPassing clouds.13 mph78%29.98 "HgN/A
8:00 AM63 °FPassing clouds.15 mph83%29.95 "HgN/A
7:30 AM61 °FPassing clouds.18 mph88%29.95 "HgN/A
7:00 AM61 °FPassing clouds.16 mph88%29.95 "HgN/A
6:30 AM61 °FPassing clouds.20 mph88%29.95 "HgN/A
6:00 AM61 °FPassing clouds.18 mph88%29.92 "HgN/A
5:30 AM61 °FPassing clouds.18 mph88%29.92 "HgN/A
5:00 AM61 °FPassing clouds.17 mph88%29.95 "HgN/A
4:30 AM61 °FPassing clouds.18 mph88%29.95 "HgN/A
4:00 AM61 °FPassing clouds.18 mph88%29.95 "HgN/A
3:30 AM61 °FPassing clouds.17 mph88%29.95 "HgN/A
3:00 AM61 °FPassing clouds.17 mph88%29.95 "HgN/A
Weather by CustomWeather, © 2016

See weather overviewHow to use our weather pages